Weather Roundup
Issued by NWS Springfield, MO

Home | Current Version | Previous Version | Text Only | Print | Product List | Glossary On
Versions: 1 2 3 4 5 6 7 8 9 10 11 12 13 14 15 16 17 18 19 20 21 22 23 24 25 26 27 28 29 30 31 32 33 34 35 36 37 38 39 40 41 42 43 44 45 46 47 48 49 50
000
NZUS99 KSGF 211757
HRRSGF

HOURLY WEATHER
NATIONAL WEATHER SERVICE SPRINGFIELD MO
100 PM CDT MON AUG 21 2017

......SGF CWA......

CITY           SKY/WX    TMP DP  RH WIND       PRES   REMARKS
SPRINGFIELD    SUNNY     85  74  69 S10       30.11F HX  92
6HR MIN TEMP:  72; 6HR MAX TEMP:  87;

JOPLIN         SUNNY     87  74  64 S9        30.08F HX  95
6HR MIN TEMP:  75; 6HR MAX TEMP:  90;

WEST PLAINS    SUNNY     86  73  65 SW3       30.15F HX  93
6HR MIN TEMP:  71; 6HR MAX TEMP:  88;

ROLLA          SUNNY     86  74  67 S9        30.12F HX  94
6HR MIN TEMP:  75; 6HR MAX TEMP:  89;

BRANSON        MOSUNNY   86  70  58 S6        30.14F HX  90

......SURROUNDING SGF CWA......

CITY           SKY/WX    TMP DP  RH WIND       PRES   REMARKS
CHANUTE        SUNNY     86  74  67 S9        30.05F HX  94
PARSONS        SUNNY     86  75  69 S7        30.06F HX  95
COFFEYVILLE    SUNNY     86  75  69 S9        30.04F HX  95
EMPORIA        MOSUNNY   86  73  65 S14       30.01F HX  93
HARRISON AR    SUNNY     86  69  56 S8        30.14F HX  90

......KANSAS AND MISSOURI......

CITY           SKY/WX    TMP DP  RH WIND       PRES   REMARKS
KANSAS CTY INT PTSUNNY   77  70  79 S5        30.05F
SEDALIA        MOSUNNY   85  78  80 N6        30.09F HX  96
ST JOSEPH      LGT RAIN  74  72  93 SE6       30.04S
ST LOUIS       PTSUNNY   91  75  59 SW10      30.07F HX 101
WICHITA        MOSUNNY   87  71  58 S10       30.01F HX  93
TOPEKA         CLOUDY    82  77  84 NE5       30.01F HX  90
OLATHE         SUNNY     80  76  87 S10       30.05F

......TENNESSEE......

CITY           SKY/WX    TMP DP  RH WIND       PRES   REMARKS
MEMPHIS        NOT AVBL
NASHVILLE      MOSUNNY   92  69  47 W6        30.15F HX  97

......ARKANSAS.......

CITY           SKY/WX    TMP DP  RH WIND       PRES   REMARKS
FAYETTEVILLE   SUNNY     84  74  71 SW7       30.12F HX  91
FT SMITH       SUNNY     88  76  67 E5        30.08F HX  99
LITTLE ROCK    MOSUNNY   89  74  60 S6        30.11F HX  98

......OKLAHOMA.......

CITY           SKY/WX    TMP DP  RH WIND       PRES   REMARKS
TULSA          MOSUNNY   88  74  63 S13       30.04F HX  96
PONCA CITY     SUNNY     90  69  50 S9        30.02F HX  94
MCALESTER      SUNNY     89  76  65 S8        30.09F HX 100
OKLAHOMA CITY  MOSUNNY   86  69  56 S12       30.06F HX  90

......IOWA............

CITY           SKY/WX    TMP DP  RH WIND       PRES   REMARKS
DES MOINES     NOT AVBL
QUAD CITIES    CLOUDY    77  67  71 SW5       30.02F

......ILLINOIS........

CITY           SKY/WX    TMP DP  RH WIND       PRES   REMARKS
QUINCY         NOT AVBL
CHICAGO        CLOUDY    81  71  71 SW8       30.06S




USA.gov is the U.S. government's official web portal to all federal, state and local government web resources and services.